Regional Weather Roundup
Issued by NWS

Home | Current Version | Previous Version | Graphics & Text | Print | Product List | Glossary On
Versions: 1 2 3 4 5 6 7 8 9 10 11 12 13 14 15 16 17 18 19 20 21 22 23 24 25 26 27 28 29 30 31 32 33 34 35 36 37 38 39 40 41 42 43 44 45 46 47 48 49 50
000
ASUS44 KMEG 221600
RWRTN
TENNESSEE HOURLY STATE WEATHER ROUNDUP
NATIONAL WEATHER SERVICE MEMPHIS TN
1000 AM CST SAT NOV 22 2014

TNZ002-004-019-021-049-052-054-088>092-221700-
WEST TENNESSEE

CITY           SKY/WX    TMP DP  RH WIND       PRES   REMARKS
MEMPHIS INTL   PTSUNNY   60  41  49 S12       30.25F
NWS MEMPHIS      N/A     60 N/A N/A MISG        N/A
JACKSON        PTSUNNY   60  37  42 S9G17     30.28S
DYERSBURG      CLOUDY    57  36  44 S9        30.27R
UNION CITY     PTSUNNY   57  41  54 S16       30.24F
PARIS          SUNNY     57  37  47 S13       30.27F
LEXINGTON      SUNNY     57  36  44 S15       30.28F
SAVANNAH       SUNNY     59  34  38 S13G23    30.31R
$$

TNZ008-025-027-028-033-062-065-066-221700-
NORTH MIDDLE TENNESSEE

CITY           SKY/WX    TMP DP  RH WIND       PRES   REMARKS
NASHVILLE      PTSUNNY   56  31  38 S14       30.32F
CLARKSVILLE    CLOUDY    58  36  43 S17       30.29F
COOKEVILLE     SUNNY     57  34  41 S9        30.35F
CROSSVILLE     SUNNY     51  28  41 S9G21     30.38F
$$

TNZ061-075-076-078-094-096-097-221700-
SOUTH MIDDLE TENNESSEE

CITY           SKY/WX    TMP DP  RH WIND       PRES   REMARKS
WINCHESTER     SUNNY     54  30  40 SE15      30.36F
SHELBYVILLE    SUNNY     59  36  41 S12       30.35F
$$

TNZ017-018-042-046-047-221700-
NORTHEAST TENNESSEE

CITY           SKY/WX    TMP DP  RH WIND       PRES   REMARKS
TRI CITIES     PTSUNNY   42  20  41 CALM      30.42F
ELIZABETHTON   SUNNY     46  19  34 E5        30.40F
$$

TNZ012-013-036-069-073-074-221700-
CENTRAL EAST TENNESSEE

CITY           SKY/WX    TMP DP  RH WIND       PRES   REMARKS
KNOXVILLE      PTSUNNY   45  23  42 CALM      30.42F
OAK RIDGE      MOSUNNY   46  26  45 W3        30.43F
GATLINBURG     SUNNY     43  25  49 CALM      30.42F
$$

TNZ083-085-099-221700-
SOUTHEAST TENNESSEE

CITY           SKY/WX    TMP DP  RH WIND       PRES   REMARKS
CHATTANOOGA    MOSUNNY   50  32  50 CALM      30.43F
$$

SKY/WX REPORTED AS FAIR MEANS FEW OR NO CLOUDS BELOW
12 THOUSAND FEET.




USA.gov is the U.S. government's official web portal to all federal, state and local government web resources and services.